This is the latest recevied weather packets stored in our database for station/object N4MGC. If no packets are shown the sender has not sent any weather packets the latest 10 day(s).
| Time | Temp. | Humidity | Pressure | Rain* | Wind** | Luminosity | Snow |
|---|---|---|---|---|---|---|---|
| 1777838043 | 21.67° C | 39% | 1019.6 hPa | 0 mm | - | 656 W/m² | - |
| 1777837739 | 22.22° C | 34% | 1019.8 hPa | 0 mm | - | 668 W/m² | - |
| 1777837436 | 22.22° C | 38% | 1019.6 hPa | 0 mm | - | 676 W/m² | - |
| 1777837132 | 21.67° C | 42% | 1019.9 hPa | 0 mm | - | 621 W/m² | - |
| 1777836828 | 21.67° C | 34% | 1019.9 hPa | 0 mm | - | 590 W/m² | - |
| 1777836523 | 21.67° C | 40% | 1020.2 hPa | 0 mm | - | 615 W/m² | - |
| 1777836219 | 21.11° C | 40% | 1020.3 hPa | 0 mm | - | 690 W/m² | - |
| 1777835916 | 21.67° C | 37% | 1020.2 hPa | 0 mm | - | 695 W/m² | - |
| 1777835613 | 21.67° C | 43% | 1020.6 hPa | 0 mm | - | 704 W/m² | - |
| 1777835310 | 21.67° C | 39% | 1020.2 hPa | 0 mm | - | 698 W/m² | - |
| 1777835007 | 21.67° C | 37% | 1020.4 hPa | 0 mm | - | 676 W/m² | - |
| 1777834704 | 21.11° C | 40% | 1020.3 hPa | 0 mm | - | 608 W/m² | - |
| 1777834399 | 21.11° C | 40% | 1020.5 hPa | 0 mm | - | 705 W/m² | - |
| 1777834094 | 21.67° C | 38% | 1020.8 hPa | 0 mm | - | 741 W/m² | - |
| 1777833791 | 21.11° C | 39% | 1020.6 hPa | 0 mm | - | 711 W/m² | - |
| 1777833486 | 21.67° C | 36% | 1020.8 hPa | 0 mm | - | 706 W/m² | - |
| 1777833184 | 21.11° C | 39% | 1021 hPa | 0 mm | - | 723 W/m² | - |
| 1777832881 | 21.11° C | 42% | 1021 hPa | 0 mm | - | 688 W/m² | - |
| 1777832580 | 20.56° C | 39% | 1021.1 hPa | 0 mm | - | 705 W/m² | - |
| 1777832276 | 21.11° C | 42% | 1021.1 hPa | 0 mm | - | 725 W/m² | - |
| 1777831974 | 21.11° C | 43% | 1021.3 hPa | 0 mm | - | 718 W/m² | - |
| 1777831670 | 20° C | 42% | 1021.3 hPa | 0 mm | - | 596 W/m² | - |
| 1777831368 | 20° C | 40% | 1021.4 hPa | 0 mm | - | 469 W/m² | - |
| 1777831064 | 20° C | 40% | 1021.1 hPa | 0 mm | - | 595 W/m² | - |
| 1777830763 | 20° C | 44% | 1021.4 hPa | 0 mm | - | 690 W/m² | - |
* Rain latest hour (hover to see other rain measurements)
** Current wind speed in m/s (hover to see current wind gust speed)